{"data":{"norad_id":63317,"intl_designator":"2025-057L","name":"STARLINK-11633 [DTC]","alt_names":[],"object_type":"PAYLOAD","status":"ACTIVE","operator":null,"country":"US","launch_date":"2025-03-18","launch_site_code":"AFETR","launch_vehicle":null,"mission":null,"orbit_class":"UNKNOWN","rcs_meters":null,"size_class":null,"mass_kg":null,"dimensions":null,"purposes":["comms"],"wikipedia_slug":null,"has_3d_model":false,"image_url":null,"decayed_at":null,"tle_current":{"epoch":"2026-09-20T21:35:39.727968Z","epoch_age_seconds":124347,"freshness":"FRESH","line1":"1 63317U 25057L   26263.89976537  .00332478  00000+0  25060-2 0  9993","line2":"2 63317  42.9999 167.4600 0000965 253.4259 106.6503 15.70708383 87882","mean_motion":15.70708383,"eccentricity":9.65e-5,"inclination_deg":42.9999,"raan_deg":167.46,"arg_perigee_deg":253.4259,"mean_anomaly_deg":106.6503,"bstar":0.002506,"rev_number":8788,"period_min":91.678379996269,"perigee_km":356.22134555709,"apogee_km":357.52120215394,"semimajor_km":6735.0082738555,"source":"CELESTRAK","updated_at":"2026-09-21T09:00:34.968985Z"}}}